Hourly Data Report for October 04, 2013

All times are specified in Local Standard Time (LST). Add 1 hour to adjust for Daylight Saving Time where and when it is observed.

GJOA HAVEN A
NUNAVUT

68°38'08.000" N
95°51'01.000" W
46.90 m
2302337
71597
YHK

Download Data

Hourly Data (October 2013)
Hourly Data Report for October 4, 2013
Temp Definition
°C
Dew Point Temp Definition
°C
Rel Hum Definition
%
Wind Dir Definition
10's deg

Wind Spd Definition
km/h
Visibility Definition
km
Stn Press Definition
kPa
Hmdx Definition


Wind Chill Definition


Weather Definition


TIME
00:00 Legend Double Dagger -7.6 -8.4 94 35 15 16.1 102.37   -14 LegendNANA
01:00 Legend Double Dagger -7.9 -8.7 94 35 15 16.1 102.38   -14 LegendNANA
02:00 Legend Double Dagger -7.8 -8.6 94 1 15 16.1 102.39   -14 LegendNANA
03:00 Legend Double Dagger -8.1 -8.9 94 36 15 16.1 102.41   -14 LegendNANA
04:00 Legend Double Dagger -7.8 -8.9 92 2 15 16.1 102.40   -14 LegendNANA
05:00 Legend Double Dagger -7.5 -8.9 90 3 13 16.1 102.37   -13 LegendNANA
06:00 Legend Double Dagger -7.0 -8.2 91 3 9 16.1 102.35   -11 LegendNANA
07:00 Legend Double Dagger -5.5 -7.3 87 7 9 16.1 102.32   -10 LegendNANA
08:00 Legend Double Dagger -4.2 -7.0 81 14 9 16.1 102.28   -8 LegendNANA
09:00 Legend Double Dagger -3.9 -7.6 76 17 15 16.1 102.26   -9 LegendNANA
10:00 Legend Double Dagger -4.4 -7.3 80 17 22 16.1 102.24   -11 LegendNANA
11:00 Legend Double Dagger -4.4 -7.8 78 16 21 12.9 102.21   -11 LegendNANA
12:00 Legend Double Dagger -4.2 -7.7 77 16 22 16.1 102.17   -11 LegendNANA
13:00 Legend Double Dagger -3.9 -6.7 81 15 18 16.1 102.11   -10 LegendNANA
14:00 Legend Double Dagger -3.3 -6.4 79 19 24 14.5 102.06   -10 LegendNANA
15:00 Legend Double Dagger -3.7 -5.8 85 20 26 11.3 101.99   -11 LegendNANA
16:00 Legend Double Dagger -3.8 -5.6 87 18 28 8.1 101.93   -11 LegendNANA
17:00 Legend Double Dagger -3.8 -5.5 88 16 30 6.4 101.89   -11 LegendNANA
18:00 Legend Double Dagger -3.7 -5.7 86 17 33 4.8 101.82   -12 LegendNANA
19:00 Legend Double Dagger -3.8 -5.6 88 17 32 6.4 101.77   -12 LegendNANA
20:00 Legend Double Dagger -3.9 -5.7 88 17 37 8.1 101.70   -12 LegendNANA
21:00 Legend Double Dagger -3.6 -5.9 84 17 30 16.1 101.66   -11 LegendNANA
22:00 Legend Double Dagger -3.6 -5.3 88 17 33 11.3 101.59   -12 LegendNANA
23:00 Legend Double Dagger -3.5 -4.6 92 16 35 11.3 101.52   -12 LegendNANA

Notes on Data Quality.

Legend

  • E = Estimated
  • M = Missing
  • NA = Not Available
  • ‡ = Partner data that is not subject to review by the National Climate Archives
Date modified: